COSMOS 249 DEB *, 3679

Orbit data source: Space-Track

COSMOS 249 DEB *, 3679 is space debris in LEO originally from a launch on Sun, 20 Oct 1968 UTC launched from the Tyuratam Missile And Space Complex (TTMTR). Debris objects in space refer to the collection of defunct objects orbiting the Earth. Examples of debris include non-operational satellites, rocket bodies, and fragments generated from explosions, collisions, or faulty payload assembly.

Loading next visibility...
Identifier
3679, 1968-091AE
Orbit
LEO
Country
Flag of CISCIS
Related business
Manufacturer
Unknown
Mission
Spacecraft
Bus & Motor
Unknown
Mass
Unknown
Launch date (UTC)
1968-10-20 (58 years ago)
Launch vehicle
Unknown
Launch site
Tyuratam Missile And Space Complex (TTMTR)
Object type
Payload
Rocket body
Debris
Shape & HBR
Unknown shape, 0.1 m
Radar Cross Section
Medium (>0.1 m² and <1 m²)

Expand to show TLE details & history
Last TLE update: 13 hours ago

TLE from 13 hours ago
0 COSMOS 249 DEB *
1 03679U 68091AE  26236.10154892  .00000863  00000-0  25542-3 0  9996
2 03679  62.7513 136.9187 0469588 256.8165  98.0105 14.00716956793943
Epoch: 2026-08-24T02:26Z
TLE epoch observation values (Epoch: 2026-08-24T02:26:13.826Z)
Latitude
-0.00005°
Longitude
127.97298°
Altitude
956.189 km
Speed
7.342 km/s
True Right ascension
09h 07m 40s
True Declination
0° 00' 00"
Sunlit
Object was in daylight at epoch
Visualization orbit readout
Latitude
Unknown
Longitude
Unknown
Altitude
Unknown
Speed
Unknown
Apparent Right ascension
Unknown
Apparent Declination
Unknown
Sunlit
N/A
Visualization observer readout
Local Sidereal Time
06:47:53
Azimuth
Unknown
Elevation
Unknown
Doppler factor
Unknown
Orbital elements
Apogee altitude
1,231.502 km
Perigee altitude
548.878 km
Semi-major axis
7,268.327 km
Eccentricity
0.04696
Inclination
62.7513°
RAAN
136.9187°
Arg. of periapsis
256.8165°
True anomaly
103.28836°
Mean anomaly
98.0105°
Eccentric anomaly
100.65465°
Mean motion
3.50261 °/min
Orbital period
102.78 mins
BSTAR
0.00025542
Loading maneuver chart data...
Computing Atmospheric mass density...
Loading historical data...
Loading historical data...
Loading historical data...
Loading historical data...
Loading historical data...
Loading historical data...
Loading historical data...

Documentation

Showing up to 5 results
|